EW2270 Weather Reports


time (UTC)temp
F
wind
direction
speed
knots
gust
knots
rain 1hr
in
rain 24hr
in
rain mn
in
humidity
%
barometer
mb
20260901023051 76 339 0.9 2.6 0.00 0.00 0.00 25 1005.4
20260901021551 79 6 1.7 5.2 0.00 0.00 0.00 23 1005.5
20260901020106 81 17 3.5 7.8 0.00 0.00 0.00 22 1005.6
20260901014546 82 18 5.2 8.7 0.00 0.00 0.00 21 1005.7
20260901013045 83 28 7.8 11.3 0.00 0.00 0.00 20 1005.8
20260901011548 84 13 7.0 12.2 0.00 0.00 0.00 20 1005.8
20260901010043 84 23 7.8 13.0 0.00 0.00 0.00 19 1006.0
20260901004555 84 28 7.8 12.2 0.00 0.00 0.00 19 1006.1
20260901003042 84 352 7.8 12.2 0.00 0.00 0.00 19 1006.3
20260901001539 84 37 8.7 13.9 0.00 0.00 0.00 20 1006.5
20260901000055 84 41 9.6 14.8 0.00 0.00 0.00 20 1006.8
20260831234536 84 29 7.8 13.9 0.00 0.00 0.00 20 1006.8
20260831233034 84 21 9.6 14.8 0.00 0.00 0.00 20 1006.9
20260831231534 84 23 9.6 13.0 0.00 0.00 0.00 20 1007.1
20260831230035 84 12 7.8 14.8 0.00 0.00 0.00 21 1007.3
20260831224526 84 29 7.0 13.0 0.00 0.00 0.00 21 1007.6
20260831223024 83 15 11.3 14.8 0.00 0.00 0.00 22 1007.7
20260831221521 83 15 9.6 13.9 0.00 0.00 0.00 23 1008.0
20260831220017 82 34 12.2 16.5 0.00 0.00 0.00 23 1008.2
20260831214515 82 37 8.7 17.4 0.00 0.00 0.00 24 1008.5
20260831213012 81 356 8.7 13.0 0.00 0.00 0.00 24 1008.8
20260831211509 81 51 8.7 14.8 0.00 0.00 0.00 24 1009.1
20260831210006 80 22 7.0 13.9 0.00 0.00 0.00 24 1009.3
20260831204504 80 45 7.8 13.9 0.00 0.00 0.00 24 1009.5
20260831203001 79 77 8.7 15.6 0.00 0.00 0.00 25 1009.7
20260831201600 80 44 8.7 13.9 0.00 0.00 0.00 24 1010.0
20260831200058 79 17 6.1 13.9 0.00 0.00 0.00 25 1010.3
20260831194632 79 49 7.0 12.2 0.00 0.00 0.00 25 1010.5
20260831193053 79 49 7.0 11.3 0.00 0.00 0.00 26 1010.5
20260831191548 78 316 2.6 9.6 0.00 0.00 0.00 26 1010.9
20260831190059 77 30 5.2 8.7 0.00 0.00 0.00 27 1011.3
20260831184541 76 322 1.7 7.0 0.00 0.00 0.00 27 1011.6
20260831183037 75 39 2.6 7.0 0.00 0.00 0.00 28 1011.9
20260831181538 73 266 0.0 5.2 0.00 0.00 0.00 30 1012.1
20260831180028 72 16 2.6 7.0 0.00 0.00 0.00 30 1012.3
20260831174528 71 15 2.6 4.3 0.00 0.00 0.00 32 1012.6
20260831173022 70 29 2.6 5.2 0.00 0.00 0.00 32 1012.7
20260831171518 69 306 1.7 4.3 0.00 0.00 0.00 34 1012.9
20260831170013 66 219 0.9 3.5 0.00 0.00 0.00 37 1012.9
20260831164513 65 305 0.0 3.5 0.00 0.00 0.00 39 1013.0
20260831163007 64 319 1.7 3.5 0.00 0.00 0.00 40 1013.1
20260831161503 62 43 0.0 3.5 0.00 0.00 0.00 44 1013.4
20260831160107 60 5 0.9 3.5 0.00 0.00 0.00 47 1013.5
20260831154628 59 330 0.9 1.7 0.00 0.00 0.00 48 1013.5
20260831153051 57 276 0.9 2.6 0.00 0.00 0.00 51 1013.6
20260831151547 56 154 0.0 1.7 0.00 0.00 0.00 56 1013.8
20260831150046 54 148 0.0 0.0 0.00 0.00 0.00 56 1013.8
20260831144541 52 148 0.0 0.0 0.00 0.00 0.00 59 1013.8
20260831143103 52 148 0.0 0.0 0.00 0.00 0.00 59 1013.7
20260831141552 48 148 0.0 0.9 0.00 0.00 0.00 62 1013.5
20260831140044 48 148 0.0 0.9 0.00 0.00 0.00 65 1013.5
20260831134538 46 148 0.0 1.7 0.00 0.00 0.00 68 1013.5
20260831133037 45 148 0.9 0.9 0.00 0.00 0.00 68 1013.4
20260831131536 44 148 0.0 1.7 0.00 0.00 0.00 70 1013.4
20260831130037 44 148 0.0 0.0 0.00 0.00 0.00 68 1013.3
20260831124532 47 148 0.0 0.0 0.00 0.00 0.00 66 1013.2
20260831123030 47 148 0.0 0.9 0.00 0.00 0.00 64 1013.3
20260831121530 47 148 0.9 1.7 0.00 0.00 0.00 65 1013.4
20260831120032 46 148 1.7 2.6 0.00 0.00 0.00 67 1013.4
20260831114534 47 148 0.0 0.0 0.00 0.00 0.00 65 1013.4
20260831113029 46 148 0.9 0.9 0.00 0.00 0.00 67 1013.3
20260831111528 46 148 0.0 0.9 0.00 0.00 0.00 63 1013.4
20260831110025 45 148 0.0 1.7 0.00 0.00 0.00 66 1013.4
20260831104522 46 148 0.0 3.5 0.00 0.00 0.00 66 1013.4
20260831103021 46 148 1.7 2.6 0.00 0.00 0.00 64 1013.5
20260831101524 47 148 1.7 2.6 0.00 0.00 0.00 63 1013.5
20260831100016 46 148 0.9 1.7 0.00 0.00 0.00 64 1013.7
20260831094513 47 148 0.0 0.0 0.00 0.00 0.00 66 1013.6
20260831093013 48 148 0.0 0.0 0.00 0.00 0.00 60 1013.8
20260831091508 49 148 0.0 0.9 0.00 0.00 0.00 61 1013.9
20260831090006 48 149 0.0 1.7 0.00 0.00 0.00 60 1014.2
20260831084505 47 148 1.7 3.5 0.00 0.00 0.00 59 1014.3
20260831083007 49 149 0.9 1.7 0.00 0.00 0.00 60 1014.2
20260831081601 49 148 1.7 3.5 0.00 0.00 0.00 58 1014.1
20260831074558 51 125 0.0 0.0 0.00 0.00 0.00 58 1014.2
20260831073102 52 125 0.9 1.7 0.00 0.00 0.00 58 1014.2
20260831071553 52 125 0.9 0.9 0.00 0.00 0.00 57 1014.4
20260831070050 51 125 0.0 0.9 0.00 0.00 0.00 59 1014.3
20260831064555 51 125 0.0 0.0 0.00 0.00 0.00 57 1014.3
20260831063048 52 125 0.9 1.7 0.00 0.00 0.00 55 1014.4
20260831061558 53 125 0.0 1.7 0.00 0.00 0.00 54 1014.3
20260831060059 54 125 0.0 2.6 0.00 0.00 0.00 52 1014.4
20260831054547 54 126 0.0 1.7 0.00 0.00 0.00 52 1014.4
20260831053048 54 148 0.0 0.9 0.00 0.00 0.00 51 1014.3
20260831051555 55 160 0.9 1.7 0.00 0.00 0.00 51 1014.3
20260831050045 55 263 1.7 2.6 0.00 0.00 0.00 52 1014.4
20260831044547 56 142 0.0 2.6 0.00 0.00 0.00 49 1014.3
20260831043048 55 142 0.0 1.7 0.00 0.00 0.00 51 1014.5
20260831041543 57 158 0.0 0.9 0.00 0.00 0.00 48 1014.4
20260831040042 57 158 0.0 1.7 0.00 0.00 0.00 47 1014.4
20260831034544 59 158 0.0 1.7 0.00 0.00 0.00 46 1014.3
20260831033042 59 132 0.9 2.6 0.00 0.00 0.00 43 1014.2
20260831031545 61 110 0.9 2.6 0.00 0.00 0.00 45 1014.2
20260831030047 65 115 0.9 1.7 0.00 0.00 0.00 39 1014.1
20260831024607 69 309 0.0 1.7 0.00 0.00 0.00 36 1013.9